Flag for U.S.A. Weather past 2 weeks in Leesburg, Virginia, U.S.A.

Now
86 °F

Partly sunny.


Feels Like: 87 °F
Forecast: 66 / 87 °F
Wind: 10 mph from West

Location: Leesburg / Godfrey

Current Time: Jul 31, 2015 at 3:43:45 PM

Latest Report: Jul 31, 2015 at 3:15 PM


Visibility: 10 mi

Pressure: 29.93 "Hg

Humidity: 46%

Dew point: 63 °F

Location of LeesburgLocation

Historic Weather in Leesburg — Graph

°F

Leesburg temperature yesterday

Maximum temperature yesterday: 90 °F (at 11:55 AM)
Minimum temperature yesterday: 72 °F (at 10:35 PM)
Average temperature yesterday: 81 °F

Past Weeks' High & Low Weather Summary

 TemperatureHumidityPressure
High95 °F (Jul 19, 3:15 PM)100% (Jul 17, 12:35 AM)30.10 "Hg (Jul 17, 12:35 AM)
Low59 °F (Jul 24, 5:55 AM)38% (Jul 25, 2:55 PM)29.66 "Hg (Jul 21, 5:15 PM)
Average79 °F77%29.95 "Hg
* Reported Jul 16 2:15 PM — Jul 31 2:15 PM, Leesburg, Weather by CustomWeather, © 2015

Note: Actual official high and low records may vary slightly from our data, if they occured in-between our weather recording intervals... More about our weather records

Advertising

Leesburg weather history for previous 24 hours

 ConditionsComfort  
Time TempWeatherWind HumidityBarometerVisibility
2:15 PM
Fri, Jul 31
88 °FScattered clouds.3 mph43%29.95 "Hg10 mi
1:55 PM86 °FPartly sunny.10 mph43%29.95 "Hg10 mi
1:35 PM88 °FScattered clouds.3 mph40%29.95 "Hg10 mi
1:15 PM88 °FScattered clouds.7 mph40%29.95 "Hg10 mi
12:55 PM88 °FScattered clouds.9 mph38%29.96 "Hg10 mi
12:15 PM86 °FSunny.12 mph49%29.97 "Hg10 mi
11:55 AM86 °FSunny.14 mph49%29.97 "Hg10 mi
11:15 AM82 °FSunny.7 mph55%29.98 "Hg10 mi
10:55 AM82 °FSunny.7 mph58%29.98 "Hg10 mi
10:15 AM82 °FSunny.13 mph55%29.98 "Hg10 mi
9:55 AM81 °FSunny.10 mph62%29.98 "Hg10 mi
9:35 AM81 °FSunny.10 mph62%29.98 "Hg10 mi
9:15 AM79 °FSunny.9 mph61%29.98 "Hg10 mi
8:55 AM79 °FSunny.7 mph61%29.98 "Hg10 mi
8:35 AM77 °FSunny.9 mph65%29.98 "Hg10 mi
8:15 AM77 °FSunny.6 mph65%29.98 "Hg10 mi
7:55 AM73 °FSunny.5 mph74%29.98 "Hg10 mi
7:35 AM73 °FSunny.6 mph74%29.98 "Hg10 mi
7:15 AM72 °FSunny.6 mph78%29.97 "Hg10 mi
6:55 AM70 °FClear.No wind78%29.97 "Hg10 mi
6:15 AM70 °FClear.3 mph78%29.96 "Hg10 mi
5:55 AM68 °FClear.3 mph83%29.95 "Hg10 mi
5:35 AM70 °FClear.3 mph78%29.95 "Hg10 mi
5:15 AM72 °FClear.7 mph73%29.95 "Hg10 mi
4:55 AM72 °FClear.8 mph73%29.95 "Hg10 mi
4:35 AM70 °FClear.6 mph78%29.95 "Hg10 mi
4:15 AM72 °FClear.8 mph73%29.95 "Hg10 mi
3:55 AM70 °FClear.6 mph78%29.95 "Hg10 mi
3:35 AM72 °FClear.9 mph73%29.94 "Hg10 mi
3:15 AM72 °FClear.10 mph73%29.94 "Hg10 mi
2:55 AM72 °FClear.8 mph73%29.94 "Hg10 mi
2:35 AM72 °FClear.9 mph73%29.94 "Hg10 mi
2:15 AM72 °FClear.7 mph78%29.94 "Hg10 mi
1:55 AM72 °FClear.7 mph73%29.94 "Hg10 mi
1:35 AM70 °FClear.8 mph83%29.94 "Hg10 mi
1:15 AM70 °FClear.9 mph83%29.94 "Hg10 mi
12:55 AM72 °FClear.8 mph78%29.95 "Hg10 mi
12:35 AM70 °FClear.6 mph83%29.94 "Hg10 mi
12:15 AM75 °FClear.No wind69%29.95 "Hg10 mi
11:55 PM
Thu, Jul 30
73 °FClear.10 mph74%29.94 "Hg10 mi
11:35 PM73 °FClear.7 mph78%29.94 "Hg10 mi
11:15 PM77 °FClear.No wind69%29.94 "Hg10 mi
10:55 PM73 °FClear.No wind83%29.93 "Hg10 mi
10:35 PM72 °FClear.8 mph88%29.93 "Hg10 mi
10:15 PM77 °FClear.10 mph74%29.93 "Hg10 mi
9:55 PM77 °FClear.No wind74%29.93 "Hg10 mi
9:35 PM77 °FClear.8 mph74%29.91 "Hg10 mi
9:15 PM77 °FSunny.3 mph74%29.91 "Hg10 mi
8:55 PM81 °FSunny.8 mph66%29.90 "Hg10 mi
8:35 PM79 °FSunny.5 mph70%29.90 "Hg10 mi
8:15 PM81 °FSunny.No wind70%29.90 "Hg10 mi
7:55 PM82 °FSunny.9 mph62%29.90 "Hg10 mi
7:35 PM86 °FSunny.9 mph55%29.89 "Hg10 mi
7:15 PM86 °FScattered clouds.5 mph79%29.89 "Hg10 mi
6:55 PM88 °FSunny.6 mph75%29.88 "Hg10 mi
6:35 PM88 °FSunny.3 mph75%29.87 "Hg10 mi
5:55 PM88 °FBroken clouds.No wind70%29.87 "Hg10 mi
5:35 PM88 °FPartly sunny.No wind70%29.87 "Hg10 mi
5:15 PM88 °FBroken clouds.No wind66%29.87 "Hg10 mi
4:55 PM90 °FScattered clouds.No wind67%29.87 "Hg10 mi
4:35 PM90 °FScattered clouds.No wind67%29.88 "Hg10 mi
4:15 PM88 °FSunny.No wind70%29.87 "Hg10 mi
3:55 PM88 °FThundershowers. Sunny.5 mph70%29.88 "Hg10 mi
3:35 PM86 °FScattered clouds.7 mph75%29.88 "Hg10 mi
3:15 PM86 °FScattered clouds.12 mph75%29.89 "Hg10 mi
Weather by CustomWeather, © 2015

See weather overviewHow to use our weather pages